Regional Weather Roundup
Issued by NWS

Home | Current Version | Previous Version | Text Only | Print | Product List | Glossary On
Versions: 1 2 3 4 5 6 7 8 9 10 11 12 13 14 15 16 17 18 19 20 21 22 23 24 25 26 27 28 29 30 31 32 33 34 35 36 37 38 39 40 41 42 43 44 45 46 47 48 49 50
000
ASUS43 KLOT 290021
RWRIL

ILLINOIS REGIONAL WEATHER ROUNDUP
NATIONAL WEATHER SERVICE CHICAGO/ROMEOVILLE IL
700 PM CDT TUE JUL 28 2015

NOTE: "FAIR" INDICATES FEW OR NO CLOUDS BELOW 12,000 FEET WITH NO
SIGNIFICANT WEATHER AND/OR OBSTRUCTIONS TO VISIBILITY.

* THESE STATIONS ARE NOT UNDER NWS QUALITY CONTROL. THEY ALSO MAY NOT
  REPORT WEATHER SUCH AS PRECIPITATION OR FOG.

ILZ001-002-007-009-015-016-024-290100-
NORTHWEST ILLINOIS

CITY           SKY/WX    TMP DP  RH WIND       PRES   REMARKS
MOLINE         CLOUDY    85  78  80 S5        29.88F HX  96
6HR MIN TEMP:  76; 6HR MAX TEMP:  86; 6HR PCP:  0.13;

STERLING*      PTSUNNY   81  75  83 S3        29.90R HX  86
SAVANNA*       PTSUNNY   81  73  76 S3        29.89F HX  86
$$

ILZ003-004-008-010-011-017-018-290100-
NORTH CENTRAL ILLINOIS

CITY           SKY/WX    TMP DP  RH WIND       PRES   REMARKS
ROCKFORD       PTSUNNY   83  73  72 SW7       29.93S HX  89
6HR MIN TEMP:  83; 6HR MAX TEMP:  86; 6HR PCP: TRACE;

FREEPORT*      PTSUNNY   80  74  82 CALM      29.93F HX  83
ROCHELLE*      PTSUNNY   80  74  81 S3        29.92F HX  85
DE KALB*       CLOUDY    82  76  82 SW6       29.93F HX  90
PERU*          CLOUDY    81  73  77 CALM      29.91F HX  86
$$

ILZ005-006-012>014-019>023-290100-
NORTHEAST ILLINOIS

CITY           SKY/WX    TMP DP  RH WIND       PRES   REMARKS
CHICAGO-OHARE  CLOUDY    87  70  56 SW7       29.90R HX  92
6HR MIN TEMP:  87; 6HR MAX TEMP:  91;

CHICAGO-MIDWAY PTSUNNY   89  69  51 SW10      29.90R HX  93
6HR MIN TEMP:  89; 6HR MAX TEMP:  94;

AURORA         CLOUDY    84  75  74 SW6       29.92S HX  92
6HR MIN TEMP:  84; 6HR MAX TEMP:  89;

LANSING*       MOSUNNY   85  68  56 S3        29.92R HX  87
JOLIET*        PTSUNNY   87  76  71 SW5       29.91S HX  97
WAUKEGAN       PTSUNNY   81  69  67 SE6       29.91S HX  84
6HR MIN TEMP:  80; 6HR MAX TEMP:  83;

DUPAGE AIRPORT CLOUDY    84  73  69 SW8       29.91S HX  90
6HR MIN TEMP:  84; 6HR MAX TEMP:  90;

KANKAKEE*      PTSUNNY   85  76  75 W5        29.93R HX  95
WHEELING       PTSUNNY   86  70  58 SE6       29.91S HX  90
6HR MIN TEMP:  85; 6HR MAX TEMP:  90;

MORRIS*        CLOUDY    82  75  77 W5        29.90F HX  89
ROMEOVILLE*    CLOUDY    85  70  61 SW7       29.92R HX  89
NORTHERLY ISL    N/A     80  71  74 CALM        N/A  HX  84
$$

LMZ740>746-290100-
SOUTHERN LAKE MICHIGAN

STATION/POSITION SKY/WX   TEMP    WIND        PRES    VSBY  WAVE
                          AIR SEA DIR/SP/G                  HT/PER
                          (F)     (DEG/KT/KT) (MB)    (MI)  (FT/S)
HARRISON CRIB              77     160/  7/ 11   N/A
BURNHAM HARBOR             80     110/  1/  5   N/A
CALUMET HARBOR             83      50/  1/  6   N/A
BURNS HARBOR               89     160/  6/ 12 1012.9R
MICHIGAN CITY              86     140/  7/  9   N/A
MICHIGAN CITY 6N           82 76  180/  6/  6   N/A           1
ST. JOSEPH                 81 76  220/  6/  6   N/A           1
$$

ILZ025>027-034>036-040-047-049-050-058-095>099-290100-
WEST-CENTRAL ILLINOIS

CITY           SKY/WX    TMP DP  RH WIND       PRES   REMARKS
QUINCY         SUNNY     90  80  72 S6        29.89S HX 107
GALESBURG*     PTSUNNY   88  81  80 CALM      29.91R HX 105
MACOMB*        MOSUNNY   89  79  72 SW3       29.92R HX 103
JACKSONVILLE*  SUNNY     92  80  67 S3        29.89R HX 110
PITTSFIELD*    SUNNY     91  81  72 S3        29.90S HX 109
$$

ILZ028>032-037-038-041>044-048-051>054-059>061-290100-
CENTRAL ILLINOIS

CITY           SKY/WX    TMP DP  RH WIND       PRES   REMARKS
PONTIAC        CLOUDY    82  76  82 CALM      29.93S HX  88
BLOOMINGTON    CLOUDY    78  73  84 S3        29.94S HX  80
DECATUR        CLOUDY    79  73  82 CALM      29.92F HX  82
PEORIA         CLOUDY    85  75  72 E6        29.90S HX  93
6HR MIN TEMP:  80; 6HR MAX TEMP:  92; 6HR PCP: TRACE;

LACON*         CLOUDY    79  74  87 CALM      29.90F HX  82
LINCOLN*       CLOUDY    82  72  69 S6        29.90F HX  87
SPRINGFIELD    MOSUNNY   87  77  72 SE9       29.90S HX  99
6HR MIN TEMP:  87; 6HR MAX TEMP:  96;

TAYLORVILLE    MOSUNNY   82  75  78 E6        29.92R HX  89
$$

ILZ033-039-045-046-055>057-062-063-290100-
EAST-CENTRAL ILLINOIS

CITY           SKY/WX    TMP DP  RH WIND       PRES   REMARKS
CHAMPAIGN      CLOUDY    78  74  87 CALM      29.93R HX  81
DANVILLE*      PTSUNNY   81  76  84 W3        29.90R HX  87
RANTOUL*       CLOUDY    82  76  83 W3        29.93R HX  89
MATTOON        CLOUDY    78  72  81 CALM      29.92S HX  80
PARIS*         PTSUNNY   82  77  84 SW5       29.92S HX  91
$$

ILZ079-100>102-290100-
SOUTHWEST ILLINOIS

CITY           SKY/WX    TMP DP  RH WIND       PRES   REMARKS
ALTON          CLOUDY    84  73  70 SE6       29.91S HX  91
BELLEVILLE     PTSUNNY   80  79  96 CALM      29.89S HX  89
CAHOKIA*       PTSUNNY   83  77  82 SE3       29.90R HX  92
SPARTA*        TSTM      80  75  84 SE9       29.93R HX  84
$$

ILZ064>066-069>071-074>076-080>082-084>086-088>090-092>094-290100-
SOUTH-CENTRAL ILLINOIS

CITY           SKY/WX    TMP DP  RH WIND       PRES   REMARKS
CARBONDALE     TSTM      81  77  88 E12       29.92R FOG     HX  88
6HR MIN TEMP:  83; 6HR MAX TEMP:  94; 6HR PCP:  0.13;

CAIRO*         SUNNY     90  78  68 W5        29.91R HX 104
EFFINGHAM*     PTSUNNY   79  75  87 CALM      29.93S HX  82
MARION         CLOUDY    86  77  74 E7        29.94R HX  97
MT. VERNON     CLOUDY    82  72  69 CALM      29.93R HX  87
CENTRALIA*     CLOUDY    89  75  62 NW6       29.92R HX  99
SALEM*         CLOUDY    93  77  59 CALM      29.92R HX 106
METROPOLIS*    MOSUNNY   91  79  67 SW5       29.93R HX 108
$$

ILZ067-068-072-073-078-083-087-091-290100-
SOUTHEAST ILLINOIS

CITY           SKY/WX    TMP DP  RH WIND       PRES   REMARKS
LAWRENCEVILLE  MOSUNNY   89  78  70 CALM      29.92R HX 103
FLORA*         MOSUNNY   90  76  63 S7        29.91R HX 101
FAIRFIELD*     CLOUDY    81  76  85 S3        29.91S HX  87
HARRISBURG*    CLOUDY    76  76  99 SE5       29.94F THUNDER
ROBINSON*      PTSUNNY   85  79  82 CALM      29.93R HX  98
CARMI*         CLOUDY    77  70  79 S7        29.92F
$$

ABBREVIATIONS USED IN REMARKS
   TC - TEMPERATURE IN CELSIUS
  WCI - WIND CHILL INDEX
   HX - HEAT INDEX
  VSB - VISIBILITY
$$



USA.gov is the U.S. government's official web portal to all federal, state and local government web resources and services.